Location: Newark
(41.9364°N, 2.8061°E)
Time: 02:20:44
(UTC+00:00)

ISS - Visible Passes

Search period start: 05 October 2022 00:00
Search period end: 15 October 2022 00:00
Orbit: 415 x 420 km, 51.6° (Epoch: 04 October)

Date Brightness Start Highest point End Pass type
(mag) Time Alt. Az. Time Alt. Az. Time Alt. Az.
05 Oct -2.0 18:32:44 10° WNW 18:35:44 30° SW 18:38:44 10° SSE visible
07 Oct -0.6 18:35:04 10° WSW 18:36:02 11° SW 18:37:00 10° SW visible
08 Oct -0.9 17:45:46 10° W 17:48:13 19° SW 17:50:39 10° S visible
